Volver al catálogo

NUSAT-26

M SOMERVILLE

ActivoCienciaSSO
NORAD 52184·PAYLOAD·🇦🇷 Argentina

Lanzado Apr 1, 2022 desde Cape Canaveral Space Force Station

Loading…

Próximos Pases (próximas 24 horas)

TLE

ActualizadoSource: Space-Track

Época: Sep 14, 2026, 11:55 UTC

1 52184U 22033AD  26257.49654763  .00020447  00000-0  43066-3 0  9995
2 52184  97.2279 336.0457 0003851 281.1962  78.8855 15.45287659118487

Sigue NUSAT-26 en tiempo real con AllMySat

Download on the App Store